Theta_e
331 331 335 336 336 337 337 338 338 338 337 337 336 335 334 333 333 333 333 332 331 330 329 329 328 326 326 325 322 319 309 312
325 328 330 331 332 335 336 336 336 336 336 335 333 333 333 332 331 332 332 332 331 330 328 327 327 325 322 319 316 313 307 309
320 324 329 328 329 334 335 336 335 334 333 333 328 325 325 321 328 330 331 330 329 327 324 322 321 320 318 313 309 302 306 308
323 323 326 328 329 328 328 330 327 327 327 324 322 322 320 324 327 327 330 328 326 324 319 316 310 305 304 305 299 299 301 307
318 319 321 327 325 324 324 323 323 323 323 322 322 320 321 321 316 315 314 316 310 309 307 305 303 302 301 299 299 298 298 300
318 319 319 325 324 323 322 321 321 320 321 323 322 317 316 315 315 313 310 309 307 306 304 302 301 301 300 299 298 298 297 298
318 319 325 325 323 322 321 320 320 321 321 322 323 318 314 314 314 310 308 307 305 303 302 300 299 299 298 298 297 297 297 298
324 325 325 323 321 321 320 321 322 324 323 323 323 320 315 314 310 307 307 305 304 302 302 298 297 298 297 297 297 296 296 297
323 325 322 320 319 320 320 322 324 321 321 323 321 319 315 309 307 307 306 303 302 300 300 298 297 297 295 295 296 296 295 296
324 327 320 319 319 321 322 323 322 320 319 317 316 315 312 307 307 307 304 304 301 299 298 296 295 295 294 294 294 295 295 295
322 322 318 319 320 319 319 320 319 318 316 314 313 311 309 308 310 308 305 303 301 300 297 296 295 294 294 294 293 293 293 295
320 320 319 318 317 316 316 316 315 314 313 312 311 310 309 307 307 306 303 301 299 298 297 296 295 294 296 294 292 292 292 292
319 319 317 317 315 314 313 312 315 312 311 311 310 309 309 307 305 303 302 300 299 297 296 295 294 293 292 292 291 292 292 291
320 319 317 318 319 314 314 312 312 313 311 309 309 309 308 306 304 301 300 299 298 296 295 294 293 292 291 289 287 290 291 292
319 319 318 319 318 315 310 311 311 310 308 307 308 309 308 305 303 300 299 298 296 295 295 294 292 293 293 291 286 285 287 290
320 319 318 318 316 316 311 310 309 310 308 306 309 307 306 304 302 299 298 297 296 296 296 294 294 292 292 294 293 291 286 285
318 318 318 318 317 316 312 310 312 308 306 308 307 304 303 302 300 298 297 296 295 295 294 294 296 292 293 292 289 288 287 286
316 317 317 318 317 315 313 312 310 308 307 305 302 300 300 299 298 297 295 295 293 294 294 293 293 292 293 290 289 288 288 285
317 317 317 318 317 317 317 315 311 310 308 304 299 297 295 295 296 295 295 296 296 295 293 293 293 292 291 290 290 290 290 289
318 318 318 319 318 318 318 315 313 310 309 306 302 297 297 297 296 298 298 297 295 295 294 293 292 291 289 290 290 290 291 291
Wind_Speed
7 17 14 15 15 15 15 14 12 13 13 12 12 13 13 14 13 13 13 16 17 18 17 17 18 17 16 14 13 12 6 4
15 12 7 9 8 15 13 14 10 11 13 10 10 11 12 11 11 11 14 16 16 18 16 17 17 16 16 15 13 12 6 5
10 10 8 5 6 6 10 13 12 12 11 9 6 4 6 7 9 12 13 15 17 17 17 17 16 16 16 15 14 4 5 4
8 7 9 6 4 5 5 6 5 5 6 5 4 4 4 5 9 10 13 15 17 16 17 16 12 6 5 11 4 5 4 4
8 7 8 7 4 3 1 3 4 3 5 5 4 3 4 3 3 3 3 10 5 7 7 6 6 5 7 5 5 5 3 3
11 11 10 6 4 3 4 3 3 3 3 5 4 3 4 4 3 4 5 4 6 5 4 6 8 8 6 6 6 4 3 3
9 9 7 4 6 4 2 3 3 4 4 5 4 4 4 4 4 4 4 4 4 5 5 6 7 6 5 6 6 5 5 3
13 11 8 7 5 6 5 3 4 4 4 5 5 4 5 4 4 4 4 4 4 4 5 5 5 4 6 5 4 5 6 6
9 7 6 6 5 5 4 4 4 4 4 5 5 5 5 6 5 4 4 4 6 5 5 5 4 3 6 5 5 6 5 6
7 7 7 7 6 5 4 4 4 4 3 3 5 5 6 6 5 5 5 4 5 4 4 4 4 4 3 3 3 2 4 5
8 7 8 8 6 4 5 6 4 3 3 3 5 6 7 7 6 5 6 4 4 4 2 2 2 2 1 2 2 2 2 2
6 5 6 7 5 4 3 3 3 2 3 4 6 5 7 6 5 6 5 4 4 3 3 4 2 2 0 2 2 1 2 2
8 8 7 7 3 4 3 3 3 2 3 6 6 6 6 6 4 6 4 5 5 5 3 3 1 1 2 3 2 2 2 2
9 11 10 8 6 3 4 4 2 2 2 4 6 6 6 6 6 5 6 5 6 4 3 2 1 2 3 2 3 3 2 2
12 13 13 10 8 6 4 5 3 1 2 3 3 6 6 6 7 6 6 4 4 3 3 3 3 2 3 3 1 3 1 2
9 8 9 8 10 10 7 5 5 4 4 3 3 5 6 6 6 6 6 4 5 4 3 2 2 0 2 1 1 2 3 3
8 8 8 7 10 9 7 5 3 2 2 6 5 4 6 6 6 7 6 5 5 6 5 5 2 1 2 0 0 1 1 3
9 10 10 8 10 7 10 9 7 5 4 5 4 4 4 6 8 8 7 6 6 5 5 4 3 3 2 1 3 3 3 3
9 11 12 12 11 11 12 11 9 9 9 7 8 5 3 6 6 5 5 7 7 5 4 5 4 3 3 3 3 4 3 2
13 12 12 12 12 13 10 9 7 7 9 9 7 6 7 8 8 6 6 9 7 5 4 3 5 3 5 5 3 3 3 3
Wind_Direction
65 96 116 109 105 104 109 119 126 121 116 113 113 115 112 109 107 102 101 106 106 96 90 88 88 83 83 80 70 65 57 42
95 99 43 89 95 110 125 116 107 109 104 112 114 106 107 109 101 99 92 93 101 91 86 83 81 79 75 73 66 50 41 40
88 77 104 58 85 112 101 110 125 107 104 115 90 101 103 101 108 97 100 97 90 90 87 81 78 72 73 69 62 39 48 36
119 136 97 58 45 63 101 120 100 100 115 128 111 113 111 106 99 104 97 93 92 91 88 82 75 69 65 59 49 35 37 21
119 117 90 130 134 151 130 99 99 112 142 139 141 122 103 104 93 72 77 89 77 81 75 69 81 82 61 53 50 44 30 27
136 140 148 207 138 164 112 110 114 137 160 162 144 121 121 109 100 112 106 90 94 81 87 83 68 67 76 65 47 31 22 358
158 164 203 197 145 125 104 141 156 168 185 185 165 142 144 124 118 116 104 103 105 100 82 76 73 73 65 65 53 38 32 16
189 189 188 170 176 153 151 172 172 191 189 194 179 163 150 134 131 109 103 105 89 93 96 90 90 90 68 56 59 36 33 26
199 185 164 158 171 144 151 183 178 191 192 191 174 165 142 134 124 123 119 112 105 94 86 82 86 70 73 56 44 41 38 39
181 184 175 165 161 165 160 177 166 165 166 129 130 125 143 123 127 134 137 119 125 105 98 84 82 75 64 49 39 59 57 56
179 174 175 168 165 155 161 168 155 163 144 150 151 136 133 143 139 144 133 138 114 117 87 121 94 84 130 93 50 85 55 66
177 168 169 152 135 131 113 112 119 153 175 163 151 148 147 137 134 133 132 120 110 114 118 48 98 153 294 37 339 338 50 53
178 163 171 150 144 136 140 162 146 180 212 151 150 158 153 142 128 128 135 138 152 130 100 123 90 93 60 337 342 332 350 320
172 180 173 175 166 142 142 146 153 178 162 164 175 156 150 140 139 146 151 134 116 134 149 137 118 165 154 145 11 335 302 262
190 186 181 178 160 134 89 91 71 103 184 179 181 160 149 140 157 147 137 109 138 156 126 126 154 221 220 137 125 228 329 335
191 189 182 174 165 174 166 176 158 198 185 145 152 160 155 156 136 129 131 136 122 115 121 122 98 124 333 322 9 115 199 313
179 171 178 175 184 187 172 149 162 116 126 148 128 124 132 134 130 128 132 126 124 115 96 75 40 135 208 191 343 295 198 200
171 171 177 181 186 184 185 182 173 159 166 155 140 141 142 141 144 142 135 122 117 118 114 142 193 184 201 164 207 212 221 199
172 178 190 194 189 201 205 198 183 183 179 168 161 153 142 145 134 120 106 103 118 147 156 182 187 176 172 204 213 221 202 209
184 191 198 193 203 216 214 188 184 196 187 174 161 149 135 130 110 126 138 154 146 158 189 165 159 161 204 220 237 245 211 201